,,PA_Meas_PMT16A,,PR_Meas_QMR101_102,,RH_Meas_QMH101,,SR_Meas_QMS101,,TA_Meas_QMH101,,GenWind,,GenWind,
time,status,PA,status,PR,status,RH,status,SR,status,TA,status,DirAvg,status,SpdAvg,
2016-06-21, 07:12:04,VALID,917.172,VALID,0,VALID,87.6083,VALID,90.0357,VALID,19.6068,VALID,121,VALID,0,
2016-06-21, 07:13:04,VALID,917.159,VALID,0,VALID,86.3276,VALID,87.5645,VALID,19.6653,VALID,134,VALID,0,
2016-06-21, 07:15:04,VALID,917.183,VALID,0,VALID,85.9159,VALID,82.2999,VALID,19.7433,VALID,136,VALID,0,
2016-06-21, 07:20:04,VALID,917.275,VALID,0,VALID,84.6809,VALID,97.9863,VALID,19.9563,VALID,129,VALID,0,
2016-06-21, 07:21:04,VALID,917.279,VALID,0,VALID,84.0177,VALID,101.747,VALID,20.0148,VALID,129,VALID,0,
2016-06-21, 07:22:04,VALID,917.283,VALID,0,VALID,83.8957,VALID,104.755,VALID,20.1139,VALID,129,VALID,0,
2016-06-21, 07:23:04,VALID,917.287,VALID,0,VALID,82.31,VALID,110.772,VALID,20.1903,VALID,129,VALID,0,
2016-06-21, 07:24:04,VALID,917.318,VALID,0,VALID,82.2414,VALID,110.557,VALID,20.2879,VALID,129,VALID,0,
2016-06-21, 07:25:04,VALID,917.357,VALID,0,VALID,81.601,VALID,118.4,VALID,20.3659,VALID,129,VALID,0,
2016-06-21, 07:26:04,VALID,917.365,VALID,0,VALID,80.3051,VALID,117.326,VALID,20.4064,VALID,129,VALID,0,
2016-06-21, 07:27:04,VALID,917.395,VALID,0,VALID,81.5096,VALID,119.904,VALID,20.4634,VALID,129,VALID,0,
2016-06-21, 07:28:04,VALID,917.429,VALID,0,VALID,81.1741,VALID,131.186,VALID,20.5804,VALID,129,VALID,0,
2016-06-21, 07:29:04,VALID,917.443,VALID,0,VALID,80.4957,VALID,127.21,VALID,20.678,VALID,128,VALID,0,
2016-06-21, 07:30:04,VALID,917.447,VALID,0,VALID,80.1374,VALID,127.748,VALID,20.756,VALID,131,VALID,0,
2016-06-21, 07:31:04,VALID,917.412,VALID,0,VALID,79.5275,VALID,141.393,VALID,20.7544,VALID,131,VALID,0,
2016-06-21, 07:32:04,VALID,917.458,VALID,0,VALID,78.8947,VALID,171.261,VALID,20.7755,VALID,130,VALID,0,
2016-06-21, 07:33:04,VALID,917.45,VALID,0,VALID,80.0992,VALID,181.79,VALID,20.7934,VALID,122,VALID,0,
2016-06-21, 07:34:04,VALID,917.439,VALID,0,VALID,80.8921,VALID,187.377,VALID,20.9105,VALID,122,VALID,0,
2016-06-21, 07:35:04,VALID,917.43,VALID,0,VALID,79.8172,VALID,194.146,VALID,21.0681,VALID,123,VALID,0,
2016-06-21, 07:36:04,VALID,917.461,VALID,0,VALID,80.0154,VALID,197.584,VALID,21.2258,VALID,122,VALID,0,
2016-06-21, 07:37:04,VALID,917.481,VALID,0,VALID,78.7956,VALID,202.741,VALID,21.3803,VALID,123,VALID,0,
2016-06-21, 07:38:04,VALID,917.518,VALID,0,VALID,77.6902,VALID,208.651,VALID,21.4388,VALID,126,VALID,0,
2016-06-21, 07:39:04,VALID,917.507,VALID,0,VALID,77.736,VALID,216.386,VALID,21.5559,VALID,124,VALID,0,
2016-06-21, 07:40:04,VALID,917.551,VALID,0,VALID,77.2404,VALID,220.792,VALID,21.6534,VALID,117,VALID,0,
2016-06-21, 07:41:04,VALID,917.598,VALID,0,VALID,76.7907,VALID,225.519,VALID,21.8274,VALID,117,VALID,0,
2016-06-21, 07:42:04,VALID,917.607,VALID,0,VALID,76.0664,VALID,230.891,VALID,22.1022,VALID,117,VALID,0,
2016-06-21, 07:43:04,VALID,917.608,VALID,0,VALID,75.3498,VALID,237.123,VALID,22.2388,VALID,117,VALID,0,
2016-06-21, 07:44:04,VALID,917.63,VALID,0,VALID,75.144,VALID,242.602,VALID,22.2957,VALID,131,VALID,0,
2016-06-21, 07:45:04,VALID,917.613,VALID,0,VALID,75.0525,VALID,248.404,VALID,22.1005,VALID,153,VALID,0,
2016-06-21, 07:46:04,VALID,917.612,VALID,0,VALID,75.5176,VALID,253.883,VALID,21.9835,VALID,152,VALID,0,
2016-06-21, 07:47:04,VALID,917.6,VALID,0,VALID,76.7297,VALID,259.041,VALID,21.8664,VALID,135,VALID,0,
2016-06-21, 07:48:04,VALID,917.602,VALID,0,VALID,76.2265,VALID,260.652,VALID,21.8859,VALID,115,VALID,0,
2016-06-21, 07:49:04,VALID,917.608,VALID,0,VALID,75.3727,VALID,262.156,VALID,21.8257,VALID,126,VALID,0,
2016-06-21, 07:50:04,VALID,917.57,VALID,0,VALID,77.6064,VALID,265.595,VALID,21.7672,VALID,126,VALID,0,
2016-06-21, 07:51:04,VALID,917.575,VALID,0,VALID,76.623,VALID,265.917,VALID,21.8079,VALID,126,VALID,0,
2016-06-21, 07:52:04,VALID,917.584,VALID,0,VALID,76.4781,VALID,266.239,VALID,21.7867,VALID,128,VALID,0,
2016-06-21, 07:53:04,VALID,917.624,VALID,0,VALID,77.8046,VALID,264.52,VALID,21.9071,VALID,132,VALID,0,
2016-06-21, 07:54:04,VALID,917.563,VALID,0,VALID,76.2647,VALID,268.603,VALID,22.042,VALID,132,VALID,0,
2016-06-21, 07:55:04,VALID,917.617,VALID,0,VALID,76.1884,VALID,269.677,VALID,22.1201,VALID,139,VALID,0,
2016-06-21, 07:56:04,VALID,917.587,VALID,0,VALID,74.9153,VALID,271.826,VALID,22.1803,VALID,138,VALID,0,
2016-06-21, 07:57:04,VALID,917.605,VALID,0,VALID,75.8682,VALID,266.776,VALID,22.081,VALID,151,VALID,0,
2016-06-21, 07:58:04,VALID,917.61,VALID,0,VALID,77.3624,VALID,259.578,VALID,22.081,VALID,151,VALID,0,
2016-06-21, 07:59:04,VALID,917.608,VALID,0,VALID,77.614,VALID,271.719,VALID,22.2176,VALID,151,VALID,0,
2016-06-21, 08:00:04,VALID,917.63,VALID,0,VALID,74.0386,VALID,273.76,VALID,22.3152,VALID,146,VALID,0,
2016-06-21, 08:01:04,VALID,917.645,VALID,0,VALID,76.1884,VALID,277.95,VALID,22.3152,VALID,146,VALID,0,
2016-06-21, 08:02:04,VALID,917.61,VALID,0,VALID,76.4324,VALID,283.537,VALID,22.5103,VALID,112,VALID,0,
2016-06-21, 08:03:04,VALID,917.628,VALID,0,VALID,73.1619,VALID,286.546,VALID,22.7233,VALID,110,VALID,0,
2016-06-21, 08:04:04,VALID,917.652,VALID,0,VALID,70.3946,VALID,290.199,VALID,22.8812,VALID,107,VALID,0,
2016-06-21, 08:05:04,VALID,917.654,VALID,0,VALID,69.0224,VALID,291.703,VALID,22.9592,VALID,95,VALID,0,
2016-06-21, 08:06:04,VALID,917.686,VALID,0,VALID,69.2892,VALID,292.67,VALID,23.016,VALID,92,VALID,0,
2016-06-21, 08:07:04,VALID,917.742,VALID,0,VALID,66.4991,VALID,296.215,VALID,23.016,VALID,92,VALID,0,
2016-06-21, 08:08:04,VALID,917.709,VALID,0,VALID,69.7771,VALID,297.182,VALID,22.977,VALID,91,VALID,0,
2016-06-21, 08:09:04,VALID,917.722,VALID,0,VALID,69.1291,VALID,297.505,VALID,23.016,VALID,91,VALID,0,
2016-06-21, 08:10:04,VALID,917.72,VALID,0,VALID,69.4798,VALID,303.199,VALID,23.0356,VALID,91,VALID,0,
2016-06-21, 08:11:04,VALID,917.769,VALID,0,VALID,68.3973,VALID,308.571,VALID,22.938,VALID,98,VALID,0,
2016-06-21, 08:12:04,VALID,917.745,VALID,0,VALID,70.4099,VALID,311.902,VALID,22.9575,VALID,99,VALID,0,
2016-06-21, 08:13:04,VALID,917.776,VALID,0,VALID,69.4646,VALID,311.579,VALID,22.9575,VALID,107,VALID,0,
2016-06-21, 08:14:04,VALID,917.793,VALID,0,VALID,68.7175,VALID,312.976,VALID,22.9557,VALID,87,VALID,0,
2016-06-21, 08:15:04,VALID,917.795,VALID,0,VALID,70.1278,VALID,316.522,VALID,23.0533,VALID,83,VALID,0,
2016-06-21, 08:16:04,VALID,917.822,VALID,0,VALID,71.0655,VALID,319.1,VALID,23.1722,VALID,96,VALID,0,
2016-06-21, 08:17:04,VALID,917.826,VALID,0,VALID,70.0973,VALID,321.356,VALID,23.2485,VALID,66,VALID,0,
2016-06-21, 08:18:04,VALID,917.885,VALID,0,VALID,68.1686,VALID,325.869,VALID,23.3851,VALID,65,VALID,0,
2016-06-21, 08:19:04,VALID,917.855,VALID,0,VALID,62.9389,VALID,331.134,VALID,23.3656,VALID,106,VALID,0,
2016-06-21, 08:20:04,VALID,917.899,VALID,0,VALID,64.5551,VALID,335.002,VALID,23.3691,VALID,106,VALID,0,
2016-06-21, 08:21:04,VALID,917.875,VALID,0,VALID,62.8398,VALID,339.621,VALID,23.3283,VALID,109,VALID,0,
2016-06-21, 08:22:04,VALID,917.863,VALID,0,VALID,64.8143,VALID,341.985,VALID,23.4259,VALID,109,VALID,0,
2016-06-21, 08:23:04,VALID,917.869,VALID,0,VALID,62.9694,VALID,296.645,VALID,23.5253,VALID,108,VALID,0,
2016-06-21, 08:24:04,VALID,917.848,VALID,0,VALID,63.4878,VALID,279.24,VALID,23.6602,VALID,96,VALID,0,
2016-06-21, 08:25:04,VALID,917.832,VALID,0,VALID,65.8587,VALID,290.413,VALID,23.8358,VALID,99,VALID,0,
2016-06-21, 08:26:04,VALID,917.823,VALID,0,VALID,64.1587,VALID,299.976,VALID,23.8358,VALID,96,VALID,0,
2016-06-21, 08:27:04,VALID,917.778,VALID,0,VALID,66.7659,VALID,295.571,VALID,23.7169,VALID,54,VALID,0,
2016-06-21, 08:28:04,VALID,917.767,VALID,0,VALID,64.8448,VALID,349.291,VALID,23.7205,VALID,52,VALID,0,
2016-06-21, 08:29:04,VALID,917.811,VALID,0,VALID,64.3188,VALID,361.969,VALID,23.7364,VALID,85,VALID,0,
2016-06-21, 08:30:04,VALID,917.791,VALID,0,VALID,65.3708,VALID,371.102,VALID,23.795,VALID,85,VALID,0,
2016-06-21, 08:31:04,VALID,917.838,VALID,0,VALID,65.3174,VALID,368.416,VALID,23.953,VALID,85,VALID,0,
2016-06-21, 08:32:04,VALID,917.819,VALID,0,VALID,65.2412,VALID,372.713,VALID,23.9707,VALID,85,VALID,0,
2016-06-21, 08:33:04,VALID,917.872,VALID,0,VALID,62.5273,VALID,381.953,VALID,23.9121,VALID,85,VALID,0,
2016-06-21, 08:34:04,VALID,917.872,VALID,0,VALID,60.8958,VALID,382.813,VALID,24.0292,VALID,85,VALID,0,
2016-06-21, 08:35:04,VALID,917.885,VALID,0,VALID,63.1524,VALID,386.788,VALID,24.086,VALID,85,VALID,0,
2016-06-21, 08:36:04,VALID,917.872,VALID,0,VALID,64.9134,VALID,390.011,VALID,24.2635,VALID,80,VALID,0,
2016-06-21, 08:37:04,VALID,917.9,VALID,0,VALID,63.2057,VALID,393.235,VALID,24.4197,VALID,85,VALID,0,
2016-06-21, 08:38:04,VALID,917.921,VALID,0,VALID,64.921,VALID,393.127,VALID,24.4587,VALID,82,VALID,0,
2016-06-21, 08:39:04,VALID,917.925,VALID,0,VALID,63.2134,VALID,397.425,VALID,24.6735,VALID,71,VALID,0,
2016-06-21, 08:40:04,VALID,917.882,VALID,0,VALID,61.9403,VALID,397.532,VALID,24.9292,VALID,71,VALID,0,
2016-06-21, 08:41:04,VALID,917.897,VALID,0,VALID,61.8411,VALID,404.194,VALID,25.0445,VALID,71,VALID,0,
2016-06-21, 08:42:04,VALID,917.878,VALID,0,VALID,59.1348,VALID,402.152,VALID,25.0836,VALID,75,VALID,0,
2016-06-21, 08:43:04,VALID,917.887,VALID,0,VALID,61.3228,VALID,388.83,VALID,25.025,VALID,78,VALID,0,
2016-06-21, 08:44:04,VALID,917.891,VALID,0,VALID,59.8591,VALID,383.565,VALID,25.0836,VALID,85,VALID,0,
2016-06-21, 08:45:04,VALID,917.896,VALID,0,VALID,60.9568,VALID,383.565,VALID,25.0055,VALID,74,VALID,0,
2016-06-21, 08:46:04,VALID,917.922,VALID,0,VALID,61.0102,VALID,387.218,VALID,25.0817,VALID,68,VALID,0,
2016-06-21, 08:47:04,VALID,917.9,VALID,0,VALID,59.8591,VALID,403.871,VALID,25.1226,VALID,68,VALID,0,
2016-06-21, 08:48:04,VALID,917.904,VALID,0,VALID,57.8389,VALID,413.863,VALID,25.1226,VALID,71,VALID,0,
2016-06-21, 08:49:04,VALID,917.938,VALID,0,VALID,58.7689,VALID,404.623,VALID,24.984,VALID,73,VALID,0,
2016-06-21, 08:50:04,VALID,917.948,VALID,0,VALID,61.8107,VALID,422.673,VALID,25.0036,VALID,59,VALID,0,
2016-06-21, 08:51:04,VALID,917.961,VALID,0,VALID,62.7026,VALID,428.798,VALID,24.8474,VALID,11,VALID,0,
2016-06-21, 08:52:04,VALID,917.977,VALID,0,VALID,65.752,VALID,376.474,VALID,24.6345,VALID,35,VALID,0.770703,
2016-06-21, 08:53:04,VALID,917.96,VALID,0,VALID,65.1573,VALID,209.725,VALID,24.4978,VALID,64,VALID,0.24375,
2016-06-21, 08:54:04,VALID,918.007,VALID,0,VALID,68.3744,VALID,242.28,VALID,24.4197,VALID,36,VALID,0.00117188,
2016-06-21, 08:55:04,VALID,918.002,VALID,0,VALID,69.2587,VALID,420.954,VALID,24.3221,VALID,4,VALID,0,
2016-06-21, 08:56:04,VALID,918.025,VALID,0,VALID,67.9399,VALID,453.831,VALID,24.3221,VALID,4,VALID,0,
2016-06-21, 08:57:04,VALID,918,VALID,0,VALID,68.7098,VALID,439.219,VALID,24.3611,VALID,11,VALID,0,
2016-06-21, 08:58:04,VALID,918.024,VALID,0,VALID,65.3174,VALID,452.005,VALID,24.3416,VALID,18,VALID,0,
2016-06-21, 08:59:04,VALID,918.07,VALID,0,VALID,67.7264,VALID,479.402,VALID,24.3983,VALID,19,VALID,0,
2016-06-21, 09:00:04,VALID,918.09,VALID,0,VALID,65.7901,VALID,483.055,VALID,24.5368,VALID,349,VALID,0,
2016-06-21, 09:01:04,VALID,918.072,VALID,0,VALID,66.3237,VALID,487.89,VALID,24.7126,VALID,6,VALID,0.00234375,
2016-06-21, 09:02:04,VALID,918.065,VALID,0,VALID,63.2972,VALID,495.089,VALID,24.8688,VALID,14,VALID,0,
2016-06-21, 09:03:04,VALID,918.086,VALID,0,VALID,65.7367,VALID,492.725,VALID,24.9664,VALID,48,VALID,0,
2016-06-21, 09:04:04,VALID,918.086,VALID,0,VALID,63.221,VALID,486.279,VALID,24.9664,VALID,50,VALID,0,
2016-06-21, 09:05:04,VALID,918.064,VALID,0,VALID,64.5856,VALID,459.203,VALID,25.1402,VALID,53,VALID,0,
2016-06-21, 09:06:04,VALID,918.093,VALID,0,VALID,61.9326,VALID,457.055,VALID,25.1617,VALID,57,VALID,0.00664063,
2016-06-21, 09:07:04,VALID,918.107,VALID,0,VALID,63.2439,VALID,456.732,VALID,25.025,VALID,60,VALID,0,
2016-06-21, 09:08:04,VALID,918.112,VALID,0,VALID,64.0443,VALID,488.965,VALID,24.9859,VALID,47,VALID,0,
2016-06-21, 09:09:04,VALID,918.072,VALID,0,VALID,62.7407,VALID,506.155,VALID,25.2007,VALID,40,VALID,0,
2016-06-21, 09:10:04,VALID,918.088,VALID,0,VALID,61.4905,VALID,516.255,VALID,25.4351,VALID,60,VALID,0,
2016-06-21, 09:11:04,VALID,918.126,VALID,0,VALID,60.629,VALID,521.304,VALID,25.6284,VALID,349,VALID,0,
2016-06-21, 09:12:04,VALID,918.121,VALID,0,VALID,62.0927,VALID,524.528,VALID,25.5327,VALID,333,VALID,0.003125,
2016-06-21, 09:13:04,VALID,918.098,VALID,0,VALID,62.1003,VALID,529.47,VALID,25.5132,VALID,15,VALID,0,
2016-06-21, 09:14:04,VALID,918.073,VALID,0,VALID,61.0483,VALID,528.933,VALID,25.7261,VALID,17,VALID,0,
2016-06-21, 09:15:04,VALID,918.096,VALID,0,VALID,59.2492,VALID,534.842,VALID,25.9214,VALID,360,VALID,0,
2016-06-21, 09:16:04,VALID,918.062,VALID,0,VALID,56.9622,VALID,537.958,VALID,25.9995,VALID,17,VALID,0,
2016-06-21, 09:17:04,VALID,918.07,VALID,0,VALID,59.5541,VALID,540.966,VALID,26.0992,VALID,257,VALID,0,
2016-06-21, 09:18:04,VALID,918.08,VALID,0,VALID,57.1909,VALID,538.925,VALID,25.98,VALID,261,VALID,0,
2016-06-21, 09:19:04,VALID,918.068,VALID,0,VALID,58.0447,VALID,536.883,VALID,25.9604,VALID,305,VALID,0,
2016-06-21, 09:20:04,VALID,918.09,VALID,0,VALID,60.347,VALID,529.792,VALID,25.9019,VALID,343,VALID,0,
2016-06-21, 09:21:04,VALID,918.091,VALID,0,VALID,60.0115,VALID,511.42,VALID,25.8062,VALID,269,VALID,0.721094,
2016-06-21, 09:22:04,VALID,918.129,VALID,0,VALID,59.7905,VALID,506.907,VALID,25.7261,VALID,313,VALID,0.974609,
2016-06-21, 09:23:04,VALID,918.14,VALID,0,VALID,59.638,VALID,500.783,VALID,25.648,VALID,58,VALID,0.467187,
2016-06-21, 09:24:04,VALID,918.119,VALID,0,VALID,59.5008,VALID,519.263,VALID,25.7261,VALID,39,VALID,0,
2016-06-21, 09:25:04,VALID,918.129,VALID,0,VALID,58.5707,VALID,526.677,VALID,25.8042,VALID,38,VALID,0,
2016-06-21, 09:26:04,VALID,918.193,VALID,0,VALID,58.3725,VALID,537.421,VALID,25.8433,VALID,37,VALID,0,
2016-06-21, 09:27:04,VALID,918.147,VALID,0,VALID,57.7779,VALID,505.618,VALID,25.8628,VALID,165,VALID,0.471094,
2016-06-21, 09:28:04,VALID,918.165,VALID,0,VALID,57.1527,VALID,510.775,VALID,25.5698,VALID,246,VALID,2.82773,
2016-06-21, 09:29:04,VALID,918.199,VALID,0,VALID,63.16,VALID,532.263,VALID,25.2965,VALID,319,VALID,0.152734,
2016-06-21, 09:30:04,VALID,918.206,VALID,0,VALID,60.8272,VALID,540.859,VALID,25.236,VALID,11,VALID,0,
2016-06-21, 09:31:04,VALID,918.245,VALID,0,VALID,60.7205,VALID,486.494,VALID,25.3726,VALID,41,VALID,0,
2016-06-21, 09:32:04,VALID,918.242,VALID,0,VALID,59.8057,VALID,277.628,VALID,25.5503,VALID,47,VALID,0,
2016-06-21, 09:33:04,VALID,918.218,VALID,0,VALID,58.0752,VALID,341.878,VALID,25.355,VALID,248,VALID,1.3793,
2016-06-21, 09:34:04,VALID,918.241,VALID,0,VALID,62.5196,VALID,474.568,VALID,25.1617,VALID,340,VALID,0.00585938,
2016-06-21, 09:35:04,VALID,918.233,VALID,0,VALID,61.46,VALID,430.194,VALID,25.1188,VALID,4,VALID,1.46641,
2016-06-21, 09:36:04,VALID,918.215,VALID,0,VALID,60.6595,VALID,217.891,VALID,25.0602,VALID,201,VALID,1.20117,
2016-06-21, 09:37:04,VALID,918.293,VALID,0,VALID,62.1232,VALID,166.641,VALID,25.0407,VALID,31,VALID,1.45508,
2016-06-21, 09:38:04,VALID,918.303,VALID,0,VALID,61.0941,VALID,221.114,VALID,24.904,VALID,334,VALID,0.643359,
2016-06-21, 09:39:04,VALID,918.305,VALID,0,VALID,62.8779,VALID,220.254,VALID,24.8259,VALID,53,VALID,0,
2016-06-21, 09:40:04,VALID,918.345,VALID,0,VALID,63.5412,VALID,134.409,VALID,24.865,VALID,47,VALID,0,
2016-06-21, 09:41:04,VALID,918.32,VALID,0,VALID,63.8537,VALID,136.45,VALID,24.9645,VALID,51,VALID,0.0914062,
2016-06-21, 09:42:04,VALID,918.349,VALID,0,VALID,61.803,VALID,251.52,VALID,24.865,VALID,223,VALID,0,
2016-06-21, 09:43:04,VALID,918.36,VALID,0,VALID,63.038,VALID,134.624,VALID,24.6502,VALID,247,VALID,0,
2016-06-21, 09:44:04,VALID,918.305,VALID,0,VALID,63.808,VALID,154.393,VALID,24.5545,VALID,237,VALID,0,
2016-06-21, 09:45:04,VALID,918.303,VALID,0,VALID,65.2946,VALID,549.776,VALID,24.455,VALID,310,VALID,0,
2016-06-21, 09:46:04,VALID,918.295,VALID,0,VALID,65.8816,VALID,503.684,VALID,24.4569,VALID,3,VALID,0.278516,
2016-06-21, 09:47:04,VALID,918.267,VALID,0,VALID,66.6973,VALID,324.365,VALID,24.4178,VALID,11,VALID,0.00585938,
2016-06-21, 09:48:04,VALID,918.255,VALID,0,VALID,66.804,VALID,183.295,VALID,24.5173,VALID,28,VALID,0.106641,
2016-06-21, 09:49:04,VALID,918.279,VALID,0,VALID,65.5461,VALID,457.807,VALID,24.6131,VALID,19,VALID,0.000390625,
2016-06-21, 09:50:04,VALID,918.267,VALID,0,VALID,64.7533,VALID,675.912,VALID,24.7674,VALID,17,VALID,0,
2016-06-21, 09:51:04,VALID,918.279,VALID,0,VALID,66.156,VALID,562.992,VALID,25.0231,VALID,55,VALID,0,
2016-06-21, 09:52:04,VALID,918.266,VALID,0,VALID,64.8524,VALID,572.554,VALID,25.3355,VALID,39,VALID,0,
2016-06-21, 09:53:04,VALID,918.297,VALID,0,VALID,62.6111,VALID,552.892,VALID,25.5113,VALID,16,VALID,0,
2016-06-21, 09:54:04,VALID,918.248,VALID,0,VALID,61.2618,VALID,408.276,VALID,25.6675,VALID,17,VALID,1.62109,
2016-06-21, 09:55:04,VALID,918.277,VALID,0,VALID,61.6734,VALID,579.86,VALID,25.6284,VALID,328,VALID,0,
2016-06-21, 09:56:04,VALID,918.305,VALID,0,VALID,61.6429,VALID,696.541,VALID,25.6284,VALID,29,VALID,1.68906,
2016-06-21, 09:57:04,VALID,918.342,VALID,0,VALID,60.7967,VALID,698.045,VALID,25.7651,VALID,11,VALID,0,
2016-06-21, 09:58:04,VALID,918.32,VALID,0,VALID,61.6429,VALID,719.748,VALID,25.9409,VALID,322,VALID,0,
2016-06-21, 09:59:04,VALID,918.327,VALID,0,VALID,62.756,VALID,650.449,VALID,26.2339,VALID,53,VALID,0,
2016-06-21, 10:00:04,VALID,918.332,VALID,0,VALID,60.3317,VALID,563.529,VALID,26.3902,VALID,33,VALID,0.908594,
2016-06-21, 10:01:04,VALID,918.368,VALID,0,VALID,59.3254,VALID,509.271,VALID,26.4272,VALID,341,VALID,0.139453,
2016-06-21, 10:02:04,VALID,918.297,VALID,0,VALID,60.1716,VALID,689.342,VALID,26.3296,VALID,23,VALID,0.146484,
2016-06-21, 10:03:04,VALID,918.301,VALID,0,VALID,58.868,VALID,659.581,VALID,26.3882,VALID,35,VALID,0.230859,
2016-06-21, 10:04:04,VALID,918.313,VALID,0,VALID,59.0434,VALID,550.743,VALID,26.5074,VALID,327,VALID,0,
2016-06-21, 10:05:04,VALID,918.365,VALID,0,VALID,58.9138,VALID,652.275,VALID,26.605,VALID,327,VALID,0,
2016-06-21, 10:06:04,VALID,918.346,VALID,0,VALID,59.7218,VALID,571.909,VALID,26.7027,VALID,307,VALID,0,
2016-06-21, 10:07:04,VALID,918.336,VALID,0,VALID,61.0864,VALID,477.254,VALID,26.7007,VALID,180,VALID,0,
2016-06-21, 10:08:04,VALID,918.385,VALID,0,VALID,59.0129,VALID,358.424,VALID,26.7788,VALID,103,VALID,0.563281,
2016-06-21, 10:09:04,VALID,918.36,VALID,0,VALID,58.7079,VALID,522.916,VALID,26.6616,VALID,20,VALID,0.00195313,
2016-06-21, 10:10:04,VALID,918.357,VALID,0,VALID,59.7066,VALID,566.967,VALID,26.564,VALID,24,VALID,0.131641,
2016-06-21, 10:11:04,VALID,918.351,VALID,0,VALID,60.6138,VALID,555.363,VALID,26.5054,VALID,21,VALID,0.477734,
2016-06-21, 10:12:04,VALID,918.36,VALID,0,VALID,59.7371,VALID,524.42,VALID,26.3882,VALID,12,VALID,0.291797,
2016-06-21, 10:13:04,VALID,918.332,VALID,0,VALID,59.2568,VALID,530.867,VALID,26.2319,VALID,357,VALID,0.00195313,
2016-06-21, 10:14:04,VALID,918.36,VALID,0,VALID,59.516,VALID,613.382,VALID,26.2144,VALID,3,VALID,0.108984,
2016-06-21, 10:15:04,VALID,918.395,VALID,0,VALID,61.8259,VALID,608.332,VALID,26.273,VALID,351,VALID,0,
2016-06-21, 10:16:04,VALID,918.402,VALID,0,VALID,59.4093,VALID,628.101,VALID,26.308,VALID,353,VALID,0.000390625,
2016-06-21, 10:17:04,VALID,918.376,VALID,0,VALID,60.5909,VALID,664.846,VALID,26.2124,VALID,36,VALID,0.573828,
2016-06-21, 10:18:04,VALID,918.39,VALID,0,VALID,62.1308,VALID,682.036,VALID,26.2124,VALID,54,VALID,0,
2016-06-21, 10:19:04,VALID,918.365,VALID,0,VALID,62.5882,VALID,687.516,VALID,26.31,VALID,40,VALID,0.372266,
2016-06-21, 10:20:04,VALID,918.351,VALID,0,VALID,60.3241,VALID,686.227,VALID,26.4878,VALID,319,VALID,0,
2016-06-21, 10:21:04,VALID,918.312,VALID,0,VALID,59.8286,VALID,681.714,VALID,26.4508,VALID,29,VALID,0,
2016-06-21, 10:22:04,VALID,918.328,VALID,0,VALID,61.2389,VALID,662.804,VALID,26.4878,VALID,37,VALID,0,
2016-06-21, 10:23:04,VALID,918.34,VALID,0,VALID,62.3138,VALID,654.424,VALID,26.605,VALID,74,VALID,0,
2016-06-21, 10:24:04,VALID,918.289,VALID,0,VALID,58.4792,VALID,644.432,VALID,26.7027,VALID,30,VALID,0.613281,
2016-06-21, 10:25:04,VALID,918.309,VALID,0,VALID,58.4487,VALID,646.796,VALID,26.7809,VALID,255,VALID,0,
2016-06-21, 10:26:04,VALID,918.318,VALID,0,VALID,59.6609,VALID,656.788,VALID,26.7223,VALID,220,VALID,0,
2016-06-21, 10:27:04,VALID,918.315,VALID,0,VALID,61.0636,VALID,651.201,VALID,26.7963,VALID,75,VALID,0,
2016-06-21, 10:28:04,VALID,918.228,VALID,0,VALID,58.0904,VALID,627.134,VALID,26.857,VALID,300,VALID,0.0785156,
2016-06-21, 10:29:04,VALID,918.318,VALID,0,VALID,59.3254,VALID,627.241,VALID,26.5249,VALID,245,VALID,0.248437,
2016-06-21, 10:30:04,VALID,918.298,VALID,0,VALID,59.7218,VALID,638.415,VALID,26.3882,VALID,339,VALID,0.8875,
2016-06-21, 10:31:04,VALID,918.301,VALID,0,VALID,63.2667,VALID,614.241,VALID,26.271,VALID,307,VALID,0.0339844,
2016-06-21, 10:32:04,VALID,918.301,VALID,0,VALID,59.8743,VALID,631.969,VALID,26.2299,VALID,293,VALID,0.95,
2016-06-21, 10:33:04,VALID,918.271,VALID,0,VALID,61.3914,VALID,681.069,VALID,26.2319,VALID,331,VALID,1.05039,
2016-06-21, 10:34:04,VALID,918.221,VALID,0,VALID,62.6874,VALID,690.632,VALID,26.2299,VALID,38,VALID,0.364453,
2016-06-21, 10:35:04,VALID,918.183,VALID,0,VALID,61.1779,VALID,696.756,VALID,26.2905,VALID,30,VALID,2.51641,
2016-06-21, 10:36:04,VALID,918.204,VALID,0,VALID,61.6811,VALID,703.31,VALID,26.3296,VALID,288,VALID,0,
2016-06-21, 10:37:04,VALID,918.19,VALID,0,VALID,60.5604,VALID,703.847,VALID,26.2534,VALID,250,VALID,0.0996094,
2016-06-21, 10:38:04,VALID,918.07,VALID,0,VALID,63.9757,VALID,716.525,VALID,26.2144,VALID,26,VALID,0,
2016-06-21, 10:39:04,VALID,918.077,VALID,0,VALID,63.5564,VALID,721.682,VALID,26.4878,VALID,357,VALID,0,
2016-06-21, 10:40:04,VALID,918.094,VALID,0,VALID,59.4245,VALID,720.823,VALID,26.7593,VALID,28,VALID,0,
2016-06-21, 10:41:04,VALID,918.006,VALID,0,VALID,59.3788,VALID,721.682,VALID,26.7398,VALID,246,VALID,0.180859,
2016-06-21, 10:42:04,VALID,917.976,VALID,0,VALID,58.8528,VALID,720.178,VALID,26.6226,VALID,244,VALID,2.11328,
2016-06-21, 10:43:04,VALID,918.016,VALID,0,VALID,60.4232,VALID,727.162,VALID,26.4292,VALID,241,VALID,0.114453,
2016-06-21, 10:44:04,VALID,917.99,VALID,0,VALID,59.4474,VALID,732.964,VALID,26.3882,VALID,11,VALID,0,
2016-06-21, 10:45:04,VALID,917.977,VALID,0,VALID,62.5044,VALID,739.195,VALID,26.5444,VALID,25,VALID,0.115234,
2016-06-21, 10:46:04,VALID,917.96,VALID,0,VALID,58.8451,VALID,732.211,VALID,26.6832,VALID,163,VALID,0.0324219,
2016-06-21, 10:47:04,VALID,917.983,VALID,0,VALID,59.7752,VALID,751.014,VALID,26.4663,VALID,312,VALID,0.580469,
2016-06-21, 10:48:04,VALID,917.968,VALID,0,VALID,58.7994,VALID,730.922,VALID,26.5269,VALID,319,VALID,0.367188,
2016-06-21, 10:49:04,VALID,917.892,VALID,0,VALID,62.2757,VALID,740.055,VALID,26.603,VALID,68,VALID,0.528906,
2016-06-21, 10:50:04,VALID,917.97,VALID,0,VALID,58.5402,VALID,758.32,VALID,26.7398,VALID,319,VALID,0.0078125,
2016-06-21, 10:51:04,VALID,917.941,VALID,0,VALID,59.7752,VALID,766.485,VALID,26.8395,VALID,10,VALID,2.73555,
2016-06-21, 10:52:04,VALID,917.958,VALID,0,VALID,58.5326,VALID,767.452,VALID,26.6421,VALID,9,VALID,1.52656,
2016-06-21, 10:53:04,VALID,917.945,VALID,0,VALID,57.8694,VALID,738.121,VALID,26.566,VALID,243,VALID,0.956641,
2016-06-21, 10:54:04,VALID,917.925,VALID,0,VALID,58.5097,VALID,775.94,VALID,26.5444,VALID,202,VALID,0,
2016-06-21, 10:55:04,VALID,917.864,VALID,0,VALID,60.69,VALID,780.453,VALID,26.5835,VALID,290,VALID,1.41211,
2016-06-21, 10:56:04,VALID,917.875,VALID,0,VALID,60.3622,VALID,776.585,VALID,26.6226,VALID,54,VALID,0.0152344,
2016-06-21, 10:57:04,VALID,917.87,VALID,0,VALID,59.1882,VALID,786.469,VALID,26.7593,VALID,10,VALID,0.0789063,
2016-06-21, 10:58:04,VALID,917.76,VALID,0,VALID,56.7868,VALID,796.676,VALID,26.857,VALID,356,VALID,1.23828,
2016-06-21, 10:59:04,VALID,917.815,VALID,0,VALID,59.4245,VALID,790.982,VALID,26.7963,VALID,358,VALID,0,
2016-06-21, 11:00:04,VALID,917.772,VALID,0,VALID,59.4474,VALID,807.098,VALID,26.857,VALID,36,VALID,1.38242,